GPS BIII-5 (PRN 11)

Last updated on Sun Oct 26 2025 00:03:26 GMT+0000 (Coordinated Universal Time)

1 48859U 21054A 25289.21780060 -.00000094 00000+0 00000+0 0 9998 2 48859 55.2757 342.2645 0024064 230.1083 138.8203 2.00556506 31868
UTC large
Height (km)
Speed (km/s)
/
Latitude / Longitude
Inclination (degrees)
Orbital Period (minutes)
Azimuth
Elevation
Range (km)
Doppler Factor

Next 0 passes for location: London (51.5072 / 0.1276)

Sorry there are no passes over London.